WZZ8AX ENBR-EPSC

Flight info

Callsign WZZ8AX
Flight time 1h 25m
Altitude 35000
Route TUXIL DCT ZOL DCT RADIS DCT SONAL DCT NONSA M602 USEDU P45 FARCU
Aircraft A21N/M-SDE3FGHIRWY/LB1

Departure

Time 2026-05-04 15:41
Airport Bergen Airport, Flesland (ENBR)

Arrival

Time 2026-05-04 17:07
Airport Solidarity Szczecin–Goleniów Airport (EPSC)
Time Latitude Longitude Altitude Speed Heading
2026-05-04 15:06 60.28995 5.22725 170 ft 0 kts 182°
2026-05-04 15:31 60.28996 5.22725 170 ft 1 kts 182°
2026-05-04 15:32 60.29026 5.22727 170 ft 0 kts 183°
2026-05-04 15:32 60.29039 5.22731 170 ft 1 kts 219°
2026-05-04 15:33 60.29044 5.22765 170 ft 1 kts 279°
2026-05-04 15:34 60.29044 5.22769 170 ft 0 kts 279°
2026-05-04 15:35 60.29044 5.22767 170 ft 0 kts 279°
2026-05-04 15:36 60.29048 5.22705 170 ft 5 kts 272°
2026-05-04 15:36 60.29043 5.22610 169 ft 8 kts 261°
2026-05-04 15:36 60.29032 5.22476 168 ft 10 kts 259°
2026-05-04 15:37 60.28985 5.22379 168 ft 8 kts 179°
2026-05-04 15:37 60.28934 5.22342 168 ft 8 kts 234°
2026-05-04 15:37 60.28878 5.22292 167 ft 10 kts 172°
2026-05-04 15:37 60.28802 5.22318 167 ft 11 kts 170°
2026-05-04 15:38 60.28713 5.22347 167 ft 13 kts 171°
2026-05-04 15:38 60.28612 5.22381 167 ft 15 kts 170°
2026-05-04 15:38 60.28488 5.22422 165 ft 19 kts 170°
2026-05-04 15:38 60.28348 5.22468 162 ft 20 kts 171°
2026-05-04 15:39 60.28207 5.22517 161 ft 21 kts 170°
2026-05-04 15:39 60.28090 5.22547 159 ft 14 kts 189°
2026-05-04 15:39 60.28038 5.22266 155 ft 4 kts 271°
2026-05-04 15:40 60.28058 5.22240 155 ft 4 kts 340°
2026-05-04 15:40 60.28064 5.22238 155 ft 0 kts 351°
2026-05-04 15:40 60.28232 5.22186 157 ft 60 kts 350°
2026-05-04 15:41 60.28886 5.21965 164 ft 125 kts 351°
2026-05-04 15:41 60.29868 5.21623 418 ft 152 kts 348°
2026-05-04 15:41 60.30907 5.21267 1041 ft 153 kts 348°
2026-05-04 15:41 60.31944 5.20917 1724 ft 154 kts 348°
2026-05-04 15:42 60.32997 5.20548 2187 ft 157 kts 348°
2026-05-04 15:42 60.34104 5.20185 2500 ft 169 kts 349°
2026-05-04 15:42 60.35329 5.19816 2807 ft 184 kts 350°
2026-05-04 15:42 60.36645 5.19454 3144 ft 198 kts 349°
2026-05-04 15:43 60.38044 5.18947 3451 ft 215 kts 347°
2026-05-04 15:43 60.39577 5.18380 3820 ft 231 kts 348°
2026-05-04 15:43 60.41244 5.17813 4219 ft 248 kts 348°
2026-05-04 15:43 60.42940 5.17285 4968 ft 249 kts 348°
2026-05-04 15:44 60.44645 5.16697 5689 ft 251 kts 345°
2026-05-04 15:44 60.46360 5.15962 6354 ft 254 kts 338°
2026-05-04 15:44 60.47775 5.13915 6994 ft 252 kts 304°
2026-05-04 15:44 60.48556 5.10849 7794 ft 250 kts 285°
2026-05-04 15:45 60.48640 5.07345 8469 ft 255 kts 263°
2026-05-04 15:45 60.48315 5.03846 9240 ft 254 kts 259°
2026-05-04 15:45 60.47556 5.00608 9913 ft 263 kts 232°
2026-05-04 15:45 60.46079 4.98371 10646 ft 271 kts 213°
2026-05-04 15:46 60.44248 4.97317 11191 ft 292 kts 187°
2026-05-04 15:46 60.42142 4.98130 11489 ft 316 kts 175°
2026-05-04 15:46 60.39956 4.98815 11766 ft 323 kts 182°
2026-05-04 15:46 60.37667 4.99168 12021 ft 335 kts 184°
2026-05-04 15:47 60.35300 4.99529 12390 ft 345 kts 183°
2026-05-04 15:47 60.32899 4.99965 12928 ft 349 kts 183°
2026-05-04 15:47 60.30495 5.00445 13480 ft 352 kts 183°
2026-05-04 15:47 60.28038 5.00988 14029 ft 356 kts 181°
2026-05-04 15:48 60.25587 5.01824 14540 ft 362 kts 178°
2026-05-04 15:48 60.23125 5.02798 15051 ft 365 kts 178°
2026-05-04 15:48 60.18108 5.04831 16013 ft 374 kts 176°
2026-05-04 15:49 60.15571 5.06247 16443 ft 383 kts 171°
2026-05-04 15:49 60.13061 5.08145 17026 ft 387 kts 167°
2026-05-04 15:49 60.10560 5.10286 17476 ft 391 kts 166°
2026-05-04 15:49 60.08050 5.12464 17891 ft 395 kts 166°
2026-05-04 15:50 60.05528 5.14648 18287 ft 398 kts 167°
2026-05-04 15:50 60.02973 5.16849 18722 ft 400 kts 167°
2026-05-04 15:50 60.00399 5.19049 19088 ft 404 kts 167°
2026-05-04 15:50 59.97801 5.21268 19494 ft 407 kts 167°
2026-05-04 15:51 59.95194 5.23492 19894 ft 409 kts 167°
2026-05-04 15:51 59.92570 5.25720 20255 ft 413 kts 167°
2026-05-04 15:51 59.89946 5.27948 20639 ft 415 kts 167°
2026-05-04 15:51 59.87230 5.30250 21001 ft 418 kts 167°
2026-05-04 15:52 59.84517 5.32544 21357 ft 421 kts 167°
2026-05-04 15:52 59.81824 5.34692 21750 ft 417 kts 171°
2026-05-04 15:52 59.79005 5.36245 22087 ft 410 kts 179°
2026-05-04 15:52 59.76225 5.37050 22402 ft 404 kts 185°
2026-05-04 15:53 59.73392 5.37513 22742 ft 405 kts 187°
2026-05-04 15:53 59.70823 5.37893 23020 ft 408 kts 187°
2026-05-04 15:53 59.67968 5.38327 23346 ft 410 kts 186°
2026-05-04 15:53 59.65162 5.38783 23688 ft 413 kts 185°
2026-05-04 15:54 59.62222 5.39480 23987 ft 418 kts 183°
2026-05-04 15:54 59.59361 5.40205 24282 ft 420 kts 183°
2026-05-04 15:54 59.56448 5.40947 24600 ft 422 kts 183°
2026-05-04 15:54 59.53606 5.41665 24902 ft 424 kts 183°
2026-05-04 15:55 59.50651 5.42414 25212 ft 426 kts 183°
2026-05-04 15:55 59.47742 5.43148 25504 ft 428 kts 182°
2026-05-04 15:55 59.44759 5.43900 25798 ft 430 kts 182°
2026-05-04 15:55 59.41811 5.44638 26069 ft 432 kts 182°
2026-05-04 15:56 59.38825 5.45542 26343 ft 438 kts 179°
2026-05-04 15:56 59.35793 5.46660 26621 ft 440 kts 179°
2026-05-04 15:56 59.32799 5.47750 26921 ft 441 kts 179°
2026-05-04 15:56 59.29801 5.48841 27190 ft 442 kts 179°
2026-05-04 15:57 59.26758 5.49944 27441 ft 444 kts 179°
2026-05-04 15:57 59.23686 5.51058 27694 ft 446 kts 178°
2026-05-04 15:57 59.20625 5.52163 27951 ft 448 kts 179°
2026-05-04 15:57 59.17551 5.53274 28175 ft 450 kts 178°
2026-05-04 15:58 59.14466 5.54386 28436 ft 451 kts 178°
2026-05-04 15:58 59.11400 5.55493 28690 ft 453 kts 178°
2026-05-04 15:58 59.08256 5.56622 28936 ft 455 kts 178°
2026-05-04 15:58 59.05168 5.57735 29188 ft 456 kts 178°
2026-05-04 15:59 59.02047 5.58853 29451 ft 456 kts 178°
2026-05-04 15:59 58.98944 5.59960 29642 ft 459 kts 178°
2026-05-04 15:59 58.95776 5.61090 29857 ft 461 kts 178°
2026-05-04 15:59 58.92635 5.62349 30050 ft 469 kts 173°
2026-05-04 16:00 58.89560 5.64418 30244 ft 481 kts 163°
2026-05-04 16:00 58.86581 5.67464 30442 ft 492 kts 155°
2026-05-04 16:00 58.83813 5.71461 30691 ft 500 kts 144°
2026-05-04 16:00 58.81322 5.76235 31017 ft 502 kts 139°
2026-05-04 16:01 58.78952 5.81138 31327 ft 500 kts 137°
2026-05-04 16:01 58.76589 5.86090 31596 ft 499 kts 137°
2026-05-04 16:01 58.74217 5.91030 31872 ft 498 kts 138°
2026-05-04 16:01 58.71856 5.95900 32144 ft 497 kts 138°
2026-05-04 16:02 58.69521 6.00675 32453 ft 494 kts 139°
2026-05-04 16:02 58.67144 6.05504 32748 ft 492 kts 138°
2026-05-04 16:02 58.62448 6.14988 33277 ft 490 kts 138°
2026-05-04 16:03 58.60081 6.19743 33493 ft 490 kts 138°
2026-05-04 16:03 58.57732 6.24451 33699 ft 490 kts 138°
2026-05-04 16:03 58.55381 6.29161 33891 ft 490 kts 139°
2026-05-04 16:03 58.53017 6.33883 34088 ft 491 kts 138°
2026-05-04 16:04 58.50643 6.38614 34288 ft 491 kts 138°
2026-05-04 16:04 58.45905 6.48031 34670 ft 490 kts 138°
2026-05-04 16:04 58.43532 6.52733 34818 ft 490 kts 138°
2026-05-04 16:05 58.38800 6.62079 34855 ft 489 kts 138°
2026-05-04 16:06 58.31676 6.76082 34853 ft 488 kts 139°
2026-05-04 16:07 58.22224 6.94523 34850 ft 486 kts 139°
2026-05-04 16:08 58.12756 7.12845 34858 ft 485 kts 139°
2026-05-04 16:09 58.00910 7.35528 34861 ft 485 kts 138°
2026-05-04 16:10 57.91468 7.53573 34867 ft 484 kts 138°
2026-05-04 16:11 57.81978 7.71475 34867 ft 483 kts 139°
2026-05-04 16:12 57.67686 7.98148 34870 ft 483 kts 139°
2026-05-04 16:13 57.58178 8.15725 34882 ft 482 kts 139°
2026-05-04 16:14 57.48689 8.33135 34891 ft 481 kts 139°
2026-05-04 16:16 57.36769 8.54808 34883 ft 481 kts 139°
2026-05-04 16:17 57.24836 8.76305 34895 ft 479 kts 139°
2026-05-04 16:18 57.15299 8.93335 34899 ft 478 kts 139°
2026-05-04 16:19 57.03298 9.14582 34913 ft 478 kts 139°
2026-05-04 16:20 56.91342 9.35554 34912 ft 476 kts 139°
2026-05-04 16:22 56.79328 9.56434 34909 ft 476 kts 138°
2026-05-04 16:23 56.64884 9.81278 34918 ft 475 kts 139°
2026-05-04 16:25 56.50538 10.05905 34911 ft 473 kts 137°
2026-05-04 16:26 56.34137 10.34959 34912 ft 471 kts 137°
2026-05-04 16:28 56.22441 10.55394 34915 ft 469 kts 137°
2026-05-04 16:29 56.06037 10.83746 34915 ft 468 kts 138°
2026-05-04 16:31 55.94286 11.03839 34914 ft 467 kts 138°
2026-05-04 16:32 55.80138 11.27800 34927 ft 470 kts 138°
2026-05-04 16:33 55.70617 11.43779 34927 ft 470 kts 139°
2026-05-04 16:34 55.63469 11.55705 34930 ft 470 kts 139°
2026-05-04 16:35 55.49167 11.79377 34931 ft 471 kts 140°
2026-05-04 16:36 55.41990 11.91161 34929 ft 471 kts 141°
2026-05-04 16:37 55.34749 12.02989 34930 ft 472 kts 141°
2026-05-04 16:38 55.25097 12.18659 34927 ft 472 kts 141°
2026-05-04 16:39 55.13004 12.38138 34934 ft 473 kts 142°
2026-05-04 16:40 55.03330 12.53600 34928 ft 473 kts 142°
2026-05-04 16:41 54.91198 12.72837 34926 ft 471 kts 143°
2026-05-04 16:43 54.79697 12.93359 34924 ft 476 kts 138°
2026-05-04 16:43 54.72906 13.05986 34868 ft 478 kts 138°
2026-05-04 16:44 54.63780 13.22845 31947 ft 493 kts 140°
2026-05-04 16:45 54.58618 13.30519 30112 ft 487 kts 152°
2026-05-04 16:46 54.50026 13.38676 28562 ft 459 kts 160°
2026-05-04 16:46 54.44361 13.43520 27599 ft 447 kts 160°
2026-05-04 16:47 54.38867 13.48246 26643 ft 438 kts 160°
2026-05-04 16:47 54.33466 13.52893 25705 ft 429 kts 160°
2026-05-04 16:48 54.25585 13.59655 24318 ft 417 kts 159°
2026-05-04 16:48 54.22999 13.61867 23856 ft 413 kts 159°
2026-05-04 16:49 54.17905 13.66213 22953 ft 407 kts 160°
2026-05-04 16:49 54.12877 13.70496 22054 ft 401 kts 159°
2026-05-04 16:50 54.08242 13.75803 21143 ft 404 kts 145°
2026-05-04 16:50 54.04176 13.82309 20249 ft 400 kts 141°
2026-05-04 16:51 54.00189 13.88821 19348 ft 394 kts 142°
2026-05-04 16:51 53.98215 13.92011 18920 ft 391 kts 142°
2026-05-04 16:51 53.94766 13.99132 18028 ft 395 kts 123°
2026-05-04 16:52 53.92588 14.07700 17151 ft 393 kts 115°
2026-05-04 16:52 53.91592 14.12012 16735 ft 390 kts 115°
2026-05-04 16:53 53.89596 14.20440 15905 ft 384 kts 115°
2026-05-04 16:53 53.86720 14.32939 14663 ft 379 kts 113°
2026-05-04 16:54 53.85777 14.37082 14195 ft 377 kts 113°
2026-05-04 16:55 53.82019 14.53431 12504 ft 368 kts 113°
2026-05-04 16:55 53.80193 14.61320 11658 ft 363 kts 113°
2026-05-04 16:56 53.78381 14.69116 10826 ft 357 kts 114°
2026-05-04 16:56 53.75048 14.79532 10039 ft 325 kts 133°
2026-05-04 16:57 53.73601 14.82378 9949 ft 311 kts 135°
2026-05-04 16:57 53.70797 14.87745 9443 ft 300 kts 135°
2026-05-04 16:58 53.66725 14.95597 8403 ft 292 kts 134°
2026-05-04 16:58 53.65385 14.98189 8076 ft 290 kts 134°
2026-05-04 16:59 53.62736 15.03322 7410 ft 286 kts 134°
2026-05-04 17:00 53.57587 15.13270 6145 ft 277 kts 134°
2026-05-04 17:00 53.53804 15.20549 5164 ft 272 kts 133°
2026-05-04 17:01 53.50894 15.24264 4439 ft 261 kts 175°
2026-05-04 17:01 53.47704 15.22369 3768 ft 244 kts 225°
2026-05-04 17:02 53.45444 15.18417 3583 ft 232 kts 249°
2026-05-04 17:02 53.46164 15.13540 3321 ft 227 kts 312°
2026-05-04 17:03 53.47272 15.11703 3182 ft 218 kts 315°
2026-05-04 17:03 53.48328 15.09901 2906 ft 216 kts 312°
2026-05-04 17:03 53.50293 15.06148 2348 ft 211 kts 310°
2026-05-04 17:04 53.52124 15.02557 1882 ft 194 kts 311°
2026-05-04 17:04 53.53776 14.99339 1352 ft 166 kts 312°
2026-05-04 17:05 53.55183 14.96604 917 ft 148 kts 312°
2026-05-04 17:05 53.56527 14.94004 539 ft 147 kts 313°
2026-05-04 17:06 53.57856 14.91412 172 ft 144 kts 312°
2026-05-04 17:06 53.58405 14.90352 142 ft 77 kts 312°
2026-05-04 17:07 53.58763 14.89662 136 ft 28 kts 311°
2026-05-04 17:07 53.58847 14.89494 134 ft 27 kts 310°
2026-05-04 17:07 53.59011 14.89180 129 ft 15 kts 311°
2026-05-04 17:07 53.59089 14.89127 128 ft 13 kts 37°
2026-05-04 17:08 53.59146 14.89217 129 ft 3 kts 43°
2026-05-04 17:08 53.59161 14.89235 129 ft 3 kts 28°
2026-05-04 17:08 53.59188 14.89241 129 ft 6 kts 355°
2026-05-04 17:09 53.59225 14.89257 129 ft 5 kts 37°
2026-05-04 17:09 53.59255 14.89298 129 ft 5 kts 41°
2026-05-04 17:09 53.59275 14.89329 129 ft 0 kts 41°
2026-05-04 17:10 53.59281 14.89337 129 ft 0 kts 41°